EN

Hourly Weather Berezka

Today, 28 November, Saturday

Time Temperature Precipitation Wind Pressure Humidity
00:00 +1°C° 0.2 mm 1 mps 723 mmHg 95%
01:00 -2°C° 0 mm 2 mps 722 mmHg 96%
02:00 0°C° 0.4 mm 1 mps 722 mmHg 96%
03:00 0°C° 0.4 mm 1 mps 722 mmHg 96%
04:00 0°C° 0.4 mm 1 mps 722 mmHg 96%
05:00 0°C° 0.3 mm 1 mps 722 mmHg 96%
06:00 0°C° 0.3 mm 1 mps 722 mmHg 96%
07:00 -3°C° 0 mm 2 mps 722 mmHg 96%
08:00 -2°C° 0.1 mm 2 mps 722 mmHg 93%
09:00 -2°C° 0.1 mm 2 mps 722 mmHg 91%
10:00 -1°C° 0.1 mm 2 mps 722 mmHg 88%
11:00 -1°C° 0.2 mm 2 mps 722 mmHg 89%
12:00 -1°C° 0.2 mm 2 mps 722 mmHg 90%
13:00 -1°C° 0 mm 2 mps 722 mmHg 91%
14:00 -1°C° 0.2 mm 2 mps 721 mmHg 93%
15:00 -1°C° 0.2 mm 2 mps 721 mmHg 95%
16:00 -2°C° 0.2 mm 2 mps 721 mmHg 97%
17:00 -2°C° 0.5 mm 2 mps 721 mmHg 97%
18:00 -2°C° 0.5 mm 2 mps 722 mmHg 97%
19:00 0°C° 0.5 mm 1 mps 722 mmHg 97%
20:00 0°C° 0.6 mm 1 mps 722 mmHg 97%
21:00 -1°C° 0.6 mm 1 mps 722 mmHg 97%
22:00 -1°C° 0.6 mm 1 mps 722 mmHg 97%
23:00 -1°C° 0.4 mm 1 mps 722 mmHg 97%

Tomorrow, 29 November, Sunday

Time Temperature Precipitation Wind Pressure Humidity
00:00 -1°C° 0.4 mm 1 mps 722 mmHg 97%
01:00 -1°C° 0.4 mm 1 mps 722 mmHg 97%
02:00 -1°C° 0.3 mm 1 mps 722 mmHg 97%
03:00 -1°C° 0.3 mm 1 mps 721 mmHg 97%
04:00 -1°C° 0.3 mm 1 mps 721 mmHg 97%
05:00 -2°C° 0.3 mm 1 mps 721 mmHg 97%
06:00 -2°C° 0.3 mm 1 mps 721 mmHg 97%
07:00 -2°C° 0.3 mm 1 mps 721 mmHg 97%
08:00 -1°C° 0.2 mm 1 mps 721 mmHg 94%
09:00 -1°C° 0.2 mm 1 mps 722 mmHg 92%
10:00 0°C° 0.2 mm 1 mps 722 mmHg 90%
11:00 0°C° 0.2 mm 1 mps 722 mmHg 89%
12:00 0°C° 0.2 mm 1 mps 722 mmHg 89%
13:00 0°C° 0.2 mm 1 mps 722 mmHg 88%
14:00 -1°C° 0.1 mm 1 mps 722 mmHg 91%
15:00 -2°C° 0.1 mm 1 mps 722 mmHg 93%
16:00 -4°C° 0.1 mm 0 mps 722 mmHg 96%
17:00 -4°C° 0 mm 0 mps 722 mmHg 96%
18:00 -5°C° 0 mm 0 mps 722 mmHg 96%
19:00 -5°C° 0 mm 0 mps 723 mmHg 96%
20:00 -5°C° 0 mm 0 mps 723 mmHg 96%
21:00 -5°C° 0 mm 0 mps 723 mmHg 96%
22:00 -5°C° 0 mm 0 mps 723 mmHg 96%
23:00 -5°C° 0 mm 0 mps 723 mmHg 96%

Day after tomorrow, 30 November, Monday

Time Temperature Precipitation Wind Pressure Humidity
00:00 -5°C° 0 mm 0 mps 724 mmHg 96%
01:00 -5°C° 0 mm 0 mps 724 mmHg 96%
02:00 -5°C° 0 mm 0 mps 724 mmHg 96%
03:00 -6°C° 0 mm 0 mps 724 mmHg 95%
04:00 -6°C° 0 mm 0 mps 724 mmHg 95%
05:00 -6°C° 0 mm 0 mps 724 mmHg 95%
06:00 -6°C° 0 mm 0 mps 725 mmHg 95%
07:00 -6°C° 0 mm 0 mps 725 mmHg 95%
08:00 -4°C° 0 mm 0 mps 726 mmHg 92%
09:00 -3°C° 0 mm 0 mps 726 mmHg 88%
10:00 -2°C° 0 mm 0 mps 726 mmHg 84%
11:00 -2°C° 0 mm 0 mps 726 mmHg 82%
12:00 -1°C° 0 mm 0 mps 726 mmHg 80%
13:00 0°C° 0 mm 1 mps 726 mmHg 78%
14:00 -2°C° 0 mm 0 mps 726 mmHg 82%
15:00 -4°C° 0 mm 0 mps 726 mmHg 86%
16:00 -5°C° 0 mm 0 mps 726 mmHg 90%
17:00 -5°C° 0 mm 0 mps 726 mmHg 91%
18:00 -6°C° 0 mm 0 mps 726 mmHg 91%
19:00 -6°C° 0 mm 1 mps 727 mmHg 91%
20:00 -6°C° 0 mm 1 mps 727 mmHg 91%
21:00 -6°C° 0 mm 1 mps 727 mmHg 91%
22:00 -6°C° 0 mm 1 mps 727 mmHg 91%
23:00 -6°C° 0 mm 1 mps 727 mmHg 91%

1 December, Tuesday

Time Temperature Precipitation Wind Pressure Humidity
00:00 -6°C° 0 mm 1 mps 726 mmHg 91%
01:00 -6°C° 0 mm 1 mps 726 mmHg 91%
02:00 -6°C° 0 mm 1 mps 726 mmHg 92%
03:00 -6°C° 0 mm 1 mps 726 mmHg 92%
04:00 -7°C° 0 mm 1 mps 726 mmHg 92%
05:00 -7°C° 0 mm 1 mps 726 mmHg 92%
06:00 -7°C° 0 mm 1 mps 726 mmHg 93%
07:00 -7°C° 0 mm 1 mps 726 mmHg 93%
08:00 -4°C° 0 mm 1 mps 726 mmHg 89%
09:00 -3°C° 0 mm 1 mps 726 mmHg 85%
10:00 -1°C° 0 mm 1 mps 726 mmHg 81%
11:00 -1°C° 0 mm 1 mps 725 mmHg 79%
12:00 0°C° 0 mm 1 mps 725 mmHg 77%
13:00 +1°C° 0 mm 1 mps 725 mmHg 75%
14:00 -1°C° 0 mm 1 mps 725 mmHg 79%
15:00 -2°C° 0 mm 1 mps 724 mmHg 84%
16:00 -4°C° 0 mm 1 mps 724 mmHg 89%
17:00 -4°C° 0 mm 1 mps 724 mmHg 87%
18:00 -4°C° 0 mm 1 mps 724 mmHg 86%
19:00 -4°C° 0 mm 1 mps 724 mmHg 85%
20:00 -6°C° 0 mm 1 mps 724 mmHg 82%
21:00 -6°C° 0 mm 1 mps 724 mmHg 79%
22:00 -6°C° 0 mm 1 mps 724 mmHg 76%
23:00 -6°C° 0 mm 1 mps 724 mmHg 75%

2 December, Wednesday

Time Temperature Precipitation Wind Pressure Humidity
00:00 -6°C° 0 mm 1 mps 724 mmHg 73%
01:00 -6°C° 0 mm 0 mps 724 mmHg 71%
02:00 -6°C° 0 mm 0 mps 724 mmHg 70%
03:00 -6°C° 0 mm 0 mps 724 mmHg 69%
04:00 -6°C° 0 mm 0 mps 724 mmHg 68%
05:00 -6°C° 0 mm 0 mps 724 mmHg 67%
06:00 -6°C° 0 mm 0 mps 724 mmHg 67%
07:00 -6°C° 0 mm 0 mps 724 mmHg 67%
08:00 -5°C° 0 mm 0 mps 724 mmHg 66%
09:00 -3°C° 0 mm 0 mps 724 mmHg 65%
10:00 -2°C° 0 mm 0 mps 724 mmHg 64%
11:00 -1°C° 0 mm 0 mps 724 mmHg 64%
12:00 -1°C° 0 mm 0 mps 724 mmHg 65%
13:00 +1°C° 0 mm 1 mps 724 mmHg 66%
14:00 -1°C° 0 mm 1 mps 723 mmHg 72%
15:00 -2°C° 0 mm 1 mps 723 mmHg 79%
16:00 -4°C° 0 mm 1 mps 723 mmHg 85%
17:00 -4°C° 0 mm 1 mps 723 mmHg 84%
18:00 -4°C° 0 mm 1 mps 723 mmHg 83%
19:00 -4°C° 0 mm 1 mps 723 mmHg 83%
20:00 -4°C° 0 mm 1 mps 723 mmHg 80%
21:00 -4°C° 0 mm 1 mps 723 mmHg 77%
22:00 -4°C° 0 mm 1 mps 723 mmHg 74%
23:00 -4°C° 0 mm 1 mps 723 mmHg 72%

3 December, Thursday

Time Temperature Precipitation Wind Pressure Humidity
00:00 -4°C° 0 mm 1 mps 723 mmHg 70%
01:00 -4°C° 0 mm 1 mps 723 mmHg 69%
02:00 -4°C° 0 mm 1 mps 723 mmHg 70%
03:00 -3°C° 0 mm 1 mps 723 mmHg 70%
04:00 -3°C° 0 mm 1 mps 723 mmHg 71%
05:00 -3°C° 0 mm 1 mps 723 mmHg 72%
06:00 -3°C° 0 mm 1 mps 723 mmHg 73%
07:00 -3°C° 0 mm 1 mps 723 mmHg 74%
08:00 -2°C° 0 mm 1 mps 723 mmHg 73%
09:00 0°C° 0 mm 1 mps 723 mmHg 72%
10:00 +1°C° 0 mm 1 mps 723 mmHg 71%
11:00 +1°C° 0 mm 1 mps 722 mmHg 71%
12:00 +2°C° 0 mm 1 mps 722 mmHg 72%
13:00 +2°C° 0 mm 1 mps 721 mmHg 72%
14:00 +1°C° 0 mm 1 mps 721 mmHg 75%
15:00 0°C° 0 mm 1 mps 721 mmHg 79%
16:00 -1°C° 0 mm 1 mps 720 mmHg 82%
17:00 -1°C° 0 mm 1 mps 720 mmHg 81%
18:00 -1°C° 0 mm 1 mps 720 mmHg 79%
19:00 -1°C° 0 mm 1 mps 719 mmHg 77%
20:00 -1°C° 0 mm 1 mps 719 mmHg 76%
21:00 -1°C° 0 mm 1 mps 719 mmHg 75%
22:00 0°C° 0 mm 1 mps 718 mmHg 74%
23:00 0°C° 0 mm 1 mps 718 mmHg 73%
Show more

We Need Your Consent

Meteoprog and our Service Providers may store and access personal data such as cookies, device identifiers or other similar technologies on your device and process such data to personalise content and ads, as well as provide social media features and to analyse the traffic.

  • Store and/or access information on your device

    Cookies, device identifiers or other information can be stored or accessed on your device for the purposes indicated above.

  • Personalised ads and content, ad and content measurement, audience insights, and products development

    Ads and content can be personalised based on a profile. More data can be added to better personalise ads and content. Ad and content performance can be measured. Insights about the audience who saw the ads and content can be derived. Such data can be used to develop or improve user’s experience, systems and software.

By clicking ‘I Agree’ you will allow the use of indicated cookies, device identifiers, web beacons or other similar technologies. Your settings can be changed in the browser on your device.

For certain purposes, legitimate interests may be relied on, rather than consent. You can read more about this in our Privacy and Cookie Policy.